SCP
-0 -0 -1 -0 -0 -0 -0 -0 -0 0 0 0 0 0 0 0 0 0 0 0 0 0 0 0 0 0 0 0 0 0 0 0 0 0 0 -0 -0 -0 -0 -0 -0 -0 -0
-0 -0 -1 -1 -1 -0 -0 -0 -0 -0 -0 -0 0 0 0 0 0 0 0 0 0 0 0 0 0 0 0 0 0 0 0 0 0 0 0 0 0 -0 -0 -0 -0 -0 -0
-0 -0 -0 -0 -0 -0 -0 -0 -0 -0 -0 -0 -0 0 0 0 0 0 0 0 0 0 0 0 0 0 0 0 0 0 0 0 0 0 0 -0 0 0 0 0 0 -0 -0
-0 -0 -0 -0 -0 -0 -0 -0 -0 -0 -0 -0 -0 -0 -0 0 0 0 0 0 0 0 0 0 0 0 0 0 0 0 0 0 0 0 0 0 0 0 0 0 0 0 -0
0 -0 -0 -0 -0 -0 -0 -0 -0 -0 -0 -0 -0 -0 -0 -0 0 0 0 0 0 0 0 0 0 0 0 0 0 0 0 0 0 0 0 0 0 0 0 0 0 0 0
-0 -0 -0 -0 -0 -0 -0 -0 -0 -0 -0 -0 -0 -0 -0 -0 0 0 0 0 0 0 0 0 0 0 0 0 0 0 0 0 0 0 0 0 0 0 0 0 0 0 0
-0 0 -0 -1 -0 -0 -0 -0 -0 -0 -0 -0 -0 -0 -0 -0 0 0 0 0 0 0 0 0 0 0 0 0 0 0 0 0 0 0 0 0 0 0 0 0 0 0 0
0 0 -0 -0 -0 -0 -0 -0 -0 0 0 0 0 -0 0 -0 0 0 0 0 0 0 0 0 0 0 0 0 0 0 0 0 0 0 0 0 0 0 0 0 0 0 0
0 0 0 0 0 0 0 -0 -0 -0 0 0 0 0 0 0 0 0 0 0 0 0 0 0 0 0 0 0 0 0 0 0 0 0 0 0 0 0 0 0 0 0 0
0 0 0 0 0 0 0 0 0 -0 0 0 0 0 0 0 0 0 0 0 0 0 0 0 0 0 0 0 0 0 0 0 0 0 0 0 0 0 0 0 0 0 0
0 0 0 0 0 0 0 0 0 0 0 0 0 0 0 0 0 0 0 0 0 0 0 0 0 0 0 0 0 0 0 0 0 0 0 0 0 0 0 0 0 0 0
0 0 0 0 0 0 0 0 0 0 0 0 0 0 0 0 0 0 0 0 0 0 0 0 0 0 0 0 0 0 0 0 0 0 0 0 0 0 0 0 0 0 0
0 0 0 0 0 0 0 0 0 0 0 0 0 0 0 0 0 0 0 0 0 0 0 0 0 0 0 0 0 0 0 0 0 0 0 0 0 0 0 0 0 0 0
0 0 0 0 0 0 0 0 0 0 0 0 0 0 0 0 0 0 0 0 0 0 0 0 0 0 0 0 0 0 0 0 0 0 0 0 0 0 0 0 0 0 0
0 0 0 0 0 0 0 0 0 0 0 0 0 0 0 0 0 0 0 0 0 0 0 0 0 0 0 0 0 0 0 0 0 0 0 0 0 0 0 0 0 0 0
0 0 0 0 0 0 0 0 0 0 0 0 0 0 0 0 0 0 0 0 0 0 0 0 0 0 0 0 0 0 0 0 0 0 0 0 0 0 0 0 0 0 0
0 0 0 0 0 0 0 0 0 0 0 0 0 0 0 0 0 0 0 0 0 0 0 0 0 0 0 0 0 0 0 0 0 0 0 0 0 0 0 0 0 0 0
0 0 0 0 0 0 0 0 0 0 0 0 0 0 0 0 0 0 0 0 0 0 0 0 0 0 0 0 0 0 0 0 0 0 0 0 0 0 0 0 0 0 0
0 0 0 0 0 0 0 0 0 0 0 0 0 0 0 0 0 0 0 0 0 0 0 0 0 0 0 0 0 0 0 0 0 0 0 0 0 0 0 0 0 0 0
0 0 0 0 0 0 0 0 0 0 0 0 0 0 0 0 0 0 0 0 0 0 0 0 0 0 0 0 0 0 0 0 0 0 0 0 0 0 0 0 0 0 0
0 0 0 0 0 0 0 0 0 0 0 0 0 0 0 0 0 0 0 0 0 0 0 0 0 0 0 0 0 0 0 0 0 0 0 0 0 0 0 0 0 0 0
0 0 0 0 0 0 0 0 0 0 0 0 0 0 0 0 0 0 0 0 0 0 0 0 0 0 0 0 0 0 0 0 0 0 0 0 0 0 0 0 0 0 0
0 0 0 0 0 0 0 0 0 0 0 0 0 0 0 0 0 0 0 0 0 0 0 0 0 0 0 0 0 0 0 0 0 0 0 0 0 0 0 0 0 0 0
0 0 0 0 0 0 0 0 0 0 0 0 0 0 0 0 0 0 0 0 0 0 0 0 0 0 0 0 0 0 0 0 0 0 0 0 0 0 0 0 0 0 0
0 0 0 0 0 0 0 0 0 0 0 0 0 0 0 0 0 0 0 0 0 0 0 0 0 0 0 0 0 0 0 0 0 0 0 0 0 0 0 0 0 0 0
0 0 0 0 0 0 0 0 0 0 0 0 0 0 0 0 0 0 0 0 0 0 0 0 0 0 0 0 0 0 0 0 0 0 0 0 0 0 0 0 0 0 0
Wind_Speed_500mb
22 21 38 42 39 36 32 29 24 20 16 14 13 11 8 6 4 3 3 4 7 6 3 1 4 5 4 5 6 8 8 10 12 14 12 12 13 13 13 11 14 16 16
28 25 37 41 41 38 33 29 26 23 19 15 13 12 10 9 6 5 3 5 5 4 4 3 3 4 5 6 5 6 6 7 9 12 12 11 6 8 7 7 9 8 9
21 27 39 40 43 39 35 30 27 24 20 18 16 13 12 11 9 8 7 10 10 13 9 6 5 4 3 3 4 4 6 5 7 11 17 7 4 5 3 2 2 2 3
16 18 35 41 42 42 39 34 29 26 24 22 20 18 16 16 16 13 12 15 19 16 10 7 8 6 5 1 2 3 3 4 6 9 11 14 7 6 3 2 3 3 2
17 21 31 38 41 42 40 37 33 30 28 27 24 21 20 21 22 21 20 21 19 15 13 11 11 10 10 10 9 8 8 9 11 12 8 12 12 9 9 2 4 5 6
18 28 28 37 42 42 42 41 37 35 34 31 29 26 26 30 22 19 22 22 22 19 16 16 15 15 14 13 12 10 11 11 14 14 11 22 22 16 11 9 4 7 9
18 29 32 32 42 44 45 44 42 40 38 36 32 29 30 26 20 19 21 22 21 18 17 18 15 15 12 11 8 8 7 8 9 10 20 22 21 21 17 10 13 14 12
19 25 33 34 37 45 46 47 46 45 42 40 36 33 38 31 25 21 20 21 18 17 17 16 15 12 8 6 5 5 5 6 8 9 14 15 15 14 12 12 14 17 17
20 25 33 34 38 44 46 48 48 48 46 43 40 43 40 34 30 24 21 21 19 18 18 16 14 12 10 8 6 6 5 6 6 10 16 9 11 13 11 12 14 17 18
24 32 32 37 39 44 47 49 50 50 50 48 49 47 45 42 38 30 27 25 24 23 21 18 16 15 13 10 8 8 7 7 9 13 12 13 14 15 14 14 15 16 18
31 35 37 40 41 45 49 50 51 52 51 52 52 51 51 49 47 38 34 32 31 29 25 22 20 17 15 12 11 11 11 11 12 15 12 14 16 18 17 16 15 17 18
33 39 42 43 46 47 48 52 55 56 58 57 57 58 59 56 51 46 40 38 35 32 30 28 26 22 19 17 16 15 13 15 14 18 15 16 17 19 19 18 18 16 17
43 43 42 45 47 51 52 51 55 57 63 63 63 62 60 63 56 52 48 44 43 38 36 34 30 29 26 24 20 17 16 17 17 18 17 17 19 21 22 21 19 17 16
40 47 51 45 49 54 55 57 58 58 59 65 69 68 67 69 59 58 54 50 48 45 42 40 37 36 30 27 23 20 19 17 16 16 16 18 20 20 22 22 20 17 15
45 41 50 58 51 51 56 59 62 64 62 61 64 67 70 70 65 64 59 54 52 50 48 45 43 39 35 30 27 24 21 18 17 17 15 17 19 20 21 22 19 15 10
46 46 41 54 59 52 53 57 62 65 65 64 64 63 66 70 70 66 59 57 57 54 54 51 46 43 40 36 32 29 25 21 19 19 17 19 19 21 22 21 19 14 6
29 40 44 42 55 60 55 55 59 65 64 66 67 66 67 72 72 68 63 63 60 59 57 54 52 49 47 43 39 35 32 28 25 22 20 20 20 21 21 22 17 10 18
20 11 22 31 36 54 60 58 61 61 63 64 67 69 72 74 74 72 70 68 66 65 63 59 57 55 51 48 45 41 38 34 29 24 22 23 20 22 23 21 19 25 23
28 30 26 21 24 37 49 56 56 57 58 61 64 65 70 74 72 74 73 71 71 72 69 66 63 59 57 54 50 46 44 39 33 30 25 24 22 25 23 24 24 23 18
6 15 21 28 26 26 33 42 48 47 49 50 54 59 63 72 70 71 73 74 74 76 73 71 66 64 62 57 55 51 47 43 38 35 31 28 27 28 27 29 30 30 30
28 20 9 2 14 18 18 24 35 43 39 42 48 48 53 60 66 67 72 77 80 82 77 72 70 69 69 63 59 52 50 48 44 42 37 34 31 32 31 32 34 33 31
42 41 33 19 5 4 9 9 14 20 27 33 34 44 52 47 54 63 64 73 80 82 79 77 76 74 72 72 68 56 35 47 47 49 44 42 36 35 36 36 36 36 38
56 58 53 43 28 14 1 12 15 21 27 28 33 35 39 45 52 55 63 67 77 83 82 82 82 83 85 81 77 54 25 27 35 47 50 46 42 40 40 39 37 38 41
56 57 58 55 48 38 19 9 3 7 9 8 15 22 29 37 43 54 59 64 69 80 83 85 87 87 88 88 82 79 69 40 29 25 42 49 48 46 45 44 42 43 45
48 51 51 52 55 52 42 32 21 11 7 10 10 20 25 25 28 31 50 58 61 72 80 82 88 92 95 93 94 88 82 54 44 45 36 46 50 51 52 50 48 48 50
41 43 44 45 46 46 47 45 37 25 16 7 8 13 10 15 25 28 26 46 58 60 75 79 85 91 94 95 96 95 95 91 72 57 50 47 48 50 57 56 57 56 57
Wind_Direction_500mb
213 186 191 192 188 185 181 183 187 196 200 196 190 191 187 181 168 104 100 97 101 124 156 317 353 16 77 118 115 108 93 85 82 79 79 70 80 93 99 84 83 87 79
208 207 191 196 199 201 203 203 205 205 209 212 206 199 201 206 220 232 189 130 179 197 226 266 19 340 56 88 117 117 115 107 98 96 82 48 69 91 100 92 83 75 66
217 208 194 198 202 208 214 212 212 216 218 217 209 212 218 230 232 230 213 192 202 224 246 281 306 293 328 101 113 123 128 116 111 113 94 49 359 70 150 147 94 63 45
224 208 202 200 204 209 215 217 218 217 217 223 220 219 226 238 241 222 202 201 218 237 244 270 285 283 281 240 193 189 179 160 160 167 173 146 309 305 38 208 243 253 290
208 217 205 209 210 212 214 217 217 217 220 223 231 236 244 247 240 233 217 222 238 249 258 260 266 270 274 272 257 246 239 230 225 222 223 168 187 244 237 306 246 276 295
216 218 216 210 214 216 216 219 219 220 221 225 233 238 243 249 244 228 227 237 243 251 256 260 264 264 262 264 267 260 248 233 234 234 211 210 225 243 265 220 259 256 266
229 216 224 222 217 218 219 221 223 225 229 231 227 235 236 243 251 234 230 237 239 241 239 250 256 258 256 251 246 237 223 224 226 216 214 236 237 254 264 235 249 256 263
245 231 229 228 225 224 224 222 225 228 230 230 233 227 232 241 255 248 232 239 239 237 239 245 246 252 239 212 180 198 212 225 231 224 236 241 253 263 271 258 254 256 260
250 248 242 236 231 228 229 229 227 229 229 229 228 228 235 243 252 260 248 244 239 237 237 233 228 214 201 197 197 217 229 246 260 249 264 273 275 272 269 266 265 263 266
257 258 246 245 233 233 233 232 232 231 230 229 227 230 234 239 248 255 244 240 240 240 238 232 217 202 200 201 209 218 230 244 249 252 269 280 281 282 279 276 274 271 268
261 257 255 249 243 234 234 234 234 233 231 230 231 231 235 240 246 249 241 234 231 231 231 226 216 211 211 214 221 232 244 254 253 265 273 274 281 279 276 274 270 274 275
264 257 254 248 246 244 238 237 235 234 233 230 229 231 236 241 248 248 239 237 232 231 227 220 213 211 214 219 227 238 248 255 262 267 272 274 274 273 274 274 273 271 273
273 272 264 253 246 243 242 240 239 235 236 233 231 230 235 243 242 241 238 234 232 229 226 223 216 216 219 223 225 231 237 248 254 263 268 272 271 271 271 271 273 274 276
267 262 269 264 250 244 242 241 241 243 240 240 238 232 233 241 240 241 239 234 232 230 226 223 217 220 220 224 225 227 234 243 255 263 265 264 264 265 266 268 268 272 275
270 265 257 266 261 251 245 243 242 245 248 247 242 242 237 242 242 241 238 234 234 232 231 228 221 222 223 225 228 233 239 245 253 263 262 261 260 260 259 263 261 261 271
291 287 272 252 263 257 251 248 247 247 248 249 250 245 241 243 243 244 238 235 234 234 232 232 227 224 225 227 230 236 241 249 256 262 268 267 265 263 261 261 255 253 191
303 281 283 270 251 260 259 253 248 249 247 245 246 245 244 243 244 244 240 238 237 237 234 233 229 225 227 228 230 233 237 243 249 257 265 268 269 263 257 254 237 143 172
261 263 287 287 266 253 260 259 255 249 249 246 245 244 244 244 246 246 241 237 238 238 237 234 232 230 231 232 234 234 238 242 246 252 259 270 270 263 259 254 244 204 214
255 247 242 252 274 267 253 255 255 256 252 248 245 245 247 248 246 246 245 241 239 240 239 237 232 231 234 232 232 234 238 241 245 250 255 264 263 262 253 242 226 228 228
291 252 252 237 238 256 257 248 247 243 249 248 249 245 247 250 249 248 247 244 241 240 238 237 234 231 232 232 233 236 240 242 245 249 252 256 259 257 249 244 236 227 224
41 35 28 270 220 252 266 256 247 239 244 244 242 246 247 250 257 252 248 245 243 242 241 240 236 230 226 225 228 229 233 238 240 245 248 252 253 253 247 239 237 233 227
44 42 40 38 45 227 189 243 248 242 240 241 257 252 246 243 251 256 253 248 245 245 240 237 236 231 228 229 225 229 231 239 238 242 244 248 249 248 246 241 236 233 233
50 46 45 44 44 39 174 241 249 239 244 240 243 248 255 249 245 254 257 254 251 249 246 243 238 235 233 231 231 223 210 225 231 238 241 245 246 244 245 241 235 233 236
53 53 50 49 49 49 48 19 323 282 275 245 287 273 257 257 260 252 257 259 255 255 251 247 244 240 237 235 231 228 230 230 206 212 234 238 241 240 240 237 236 232 238
52 52 49 47 48 48 47 46 29 3 283 228 231 269 286 275 280 270 254 259 258 255 255 253 248 243 240 238 237 237 228 226 228 231 228 232 234 238 240 237 239 237 243
45 45 44 42 43 41 41 45 44 38 27 349 251 288 296 296 295 295 278 256 259 257 257 255 254 252 248 244 241 239 238 231 225 227 229 233 236 242 246 244 242 240 245
Wind_Speed_850mb
22 21 38 42 39 36 32 29 24 20 16 14 13 11 8 6 4 3 3 4 7 6 3 1 4 5 4 5 6 8 8 10 12 14 12 12 13 13 13 11 14 16 16
28 25 37 41 41 38 33 29 26 23 19 15 13 12 10 9 6 5 3 5 5 4 4 3 3 4 5 6 5 6 6 7 9 12 12 11 6 8 7 7 9 8 9
21 27 39 40 43 39 35 30 27 24 20 18 16 13 12 11 9 8 7 10 10 13 9 6 5 4 3 3 4 4 6 5 7 11 17 7 4 5 3 2 2 2 3
16 18 35 41 42 42 39 34 29 26 24 22 20 18 16 16 16 13 12 15 19 16 10 7 8 6 5 1 2 3 3 4 6 9 11 14 7 6 3 2 3 3 2
17 21 31 38 41 42 40 37 33 30 28 27 24 21 20 21 22 21 20 21 19 15 13 11 11 10 10 10 9 8 8 9 11 12 8 12 12 9 9 2 4 5 6
18 28 28 37 42 42 42 41 37 35 34 31 29 26 26 30 22 19 22 22 22 19 16 16 15 15 14 13 12 10 11 11 14 14 11 22 22 16 11 9 4 7 9
18 29 32 32 42 44 45 44 42 40 38 36 32 29 30 26 20 19 21 22 21 18 17 18 15 15 12 11 8 8 7 8 9 10 20 22 21 21 17 10 13 14 12
19 25 33 34 37 45 46 47 46 45 42 40 36 33 38 31 25 21 20 21 18 17 17 16 15 12 8 6 5 5 5 6 8 9 14 15 15 14 12 12 14 17 17
20 25 33 34 38 44 46 48 48 48 46 43 40 43 40 34 30 24 21 21 19 18 18 16 14 12 10 8 6 6 5 6 6 10 16 9 11 13 11 12 14 17 18
24 32 32 37 39 44 47 49 50 50 50 48 49 47 45 42 38 30 27 25 24 23 21 18 16 15 13 10 8 8 7 7 9 13 12 13 14 15 14 14 15 16 18
31 35 37 40 41 45 49 50 51 52 51 52 52 51 51 49 47 38 34 32 31 29 25 22 20 17 15 12 11 11 11 11 12 15 12 14 16 18 17 16 15 17 18
33 39 42 43 46 47 48 52 55 56 58 57 57 58 59 56 51 46 40 38 35 32 30 28 26 22 19 17 16 15 13 15 14 18 15 16 17 19 19 18 18 16 17
43 43 42 45 47 51 52 51 55 57 63 63 63 62 60 63 56 52 48 44 43 38 36 34 30 29 26 24 20 17 16 17 17 18 17 17 19 21 22 21 19 17 16
40 47 51 45 49 54 55 57 58 58 59 65 69 68 67 69 59 58 54 50 48 45 42 40 37 36 30 27 23 20 19 17 16 16 16 18 20 20 22 22 20 17 15
45 41 50 58 51 51 56 59 62 64 62 61 64 67 70 70 65 64 59 54 52 50 48 45 43 39 35 30 27 24 21 18 17 17 15 17 19 20 21 22 19 15 10
46 46 41 54 59 52 53 57 62 65 65 64 64 63 66 70 70 66 59 57 57 54 54 51 46 43 40 36 32 29 25 21 19 19 17 19 19 21 22 21 19 14 6
29 40 44 42 55 60 55 55 59 65 64 66 67 66 67 72 72 68 63 63 60 59 57 54 52 49 47 43 39 35 32 28 25 22 20 20 20 21 21 22 17 10 18
20 11 22 31 36 54 60 58 61 61 63 64 67 69 72 74 74 72 70 68 66 65 63 59 57 55 51 48 45 41 38 34 29 24 22 23 20 22 23 21 19 25 23
28 30 26 21 24 37 49 56 56 57 58 61 64 65 70 74 72 74 73 71 71 72 69 66 63 59 57 54 50 46 44 39 33 30 25 24 22 25 23 24 24 23 18
6 15 21 28 26 26 33 42 48 47 49 50 54 59 63 72 70 71 73 74 74 76 73 71 66 64 62 57 55 51 47 43 38 35 31 28 27 28 27 29 30 30 30
28 20 9 2 14 18 18 24 35 43 39 42 48 48 53 60 66 67 72 77 80 82 77 72 70 69 69 63 59 52 50 48 44 42 37 34 31 32 31 32 34 33 31
42 41 33 19 5 4 9 9 14 20 27 33 34 44 52 47 54 63 64 73 80 82 79 77 76 74 72 72 68 56 35 47 47 49 44 42 36 35 36 36 36 36 38
56 58 53 43 28 14 1 12 15 21 27 28 33 35 39 45 52 55 63 67 77 83 82 82 82 83 85 81 77 54 25 27 35 47 50 46 42 40 40 39 37 38 41
56 57 58 55 48 38 19 9 3 7 9 8 15 22 29 37 43 54 59 64 69 80 83 85 87 87 88 88 82 79 69 40 29 25 42 49 48 46 45 44 42 43 45
48 51 51 52 55 52 42 32 21 11 7 10 10 20 25 25 28 31 50 58 61 72 80 82 88 92 95 93 94 88 82 54 44 45 36 46 50 51 52 50 48 48 50
41 43 44 45 46 46 47 45 37 25 16 7 8 13 10 15 25 28 26 46 58 60 75 79 85 91 94 95 96 95 95 91 72 57 50 47 48 50 57 56 57 56 57
Wind_Direction_850mb
213 186 191 192 188 185 181 183 187 196 200 196 190 191 187 181 168 104 100 97 101 124 156 317 353 16 77 118 115 108 93 85 82 79 79 70 80 93 99 84 83 87 79
208 207 191 196 199 201 203 203 205 205 209 212 206 199 201 206 220 232 189 130 179 197 226 266 19 340 56 88 117 117 115 107 98 96 82 48 69 91 100 92 83 75 66
217 208 194 198 202 208 214 212 212 216 218 217 209 212 218 230 232 230 213 192 202 224 246 281 306 293 328 101 113 123 128 116 111 113 94 49 359 70 150 147 94 63 45
224 208 202 200 204 209 215 217 218 217 217 223 220 219 226 238 241 222 202 201 218 237 244 270 285 283 281 240 193 189 179 160 160 167 173 146 309 305 38 208 243 253 290
208 217 205 209 210 212 214 217 217 217 220 223 231 236 244 247 240 233 217 222 238 249 258 260 266 270 274 272 257 246 239 230 225 222 223 168 187 244 237 306 246 276 295
216 218 216 210 214 216 216 219 219 220 221 225 233 238 243 249 244 228 227 237 243 251 256 260 264 264 262 264 267 260 248 233 234 234 211 210 225 243 265 220 259 256 266
229 216 224 222 217 218 219 221 223 225 229 231 227 235 236 243 251 234 230 237 239 241 239 250 256 258 256 251 246 237 223 224 226 216 214 236 237 254 264 235 249 256 263
245 231 229 228 225 224 224 222 225 228 230 230 233 227 232 241 255 248 232 239 239 237 239 245 246 252 239 212 180 198 212 225 231 224 236 241 253 263 271 258 254 256 260
250 248 242 236 231 228 229 229 227 229 229 229 228 228 235 243 252 260 248 244 239 237 237 233 228 214 201 197 197 217 229 246 260 249 264 273 275 272 269 266 265 263 266
257 258 246 245 233 233 233 232 232 231 230 229 227 230 234 239 248 255 244 240 240 240 238 232 217 202 200 201 209 218 230 244 249 252 269 280 281 282 279 276 274 271 268
261 257 255 249 243 234 234 234 234 233 231 230 231 231 235 240 246 249 241 234 231 231 231 226 216 211 211 214 221 232 244 254 253 265 273 274 281 279 276 274 270 274 275
264 257 254 248 246 244 238 237 235 234 233 230 229 231 236 241 248 248 239 237 232 231 227 220 213 211 214 219 227 238 248 255 262 267 272 274 274 273 274 274 273 271 273
273 272 264 253 246 243 242 240 239 235 236 233 231 230 235 243 242 241 238 234 232 229 226 223 216 216 219 223 225 231 237 248 254 263 268 272 271 271 271 271 273 274 276
267 262 269 264 250 244 242 241 241 243 240 240 238 232 233 241 240 241 239 234 232 230 226 223 217 220 220 224 225 227 234 243 255 263 265 264 264 265 266 268 268 272 275
270 265 257 266 261 251 245 243 242 245 248 247 242 242 237 242 242 241 238 234 234 232 231 228 221 222 223 225 228 233 239 245 253 263 262 261 260 260 259 263 261 261 271
291 287 272 252 263 257 251 248 247 247 248 249 250 245 241 243 243 244 238 235 234 234 232 232 227 224 225 227 230 236 241 249 256 262 268 267 265 263 261 261 255 253 191
303 281 283 270 251 260 259 253 248 249 247 245 246 245 244 243 244 244 240 238 237 237 234 233 229 225 227 228 230 233 237 243 249 257 265 268 269 263 257 254 237 143 172
261 263 287 287 266 253 260 259 255 249 249 246 245 244 244 244 246 246 241 237 238 238 237 234 232 230 231 232 234 234 238 242 246 252 259 270 270 263 259 254 244 204 214
255 247 242 252 274 267 253 255 255 256 252 248 245 245 247 248 246 246 245 241 239 240 239 237 232 231 234 232 232 234 238 241 245 250 255 264 263 262 253 242 226 228 228
291 252 252 237 238 256 257 248 247 243 249 248 249 245 247 250 249 248 247 244 241 240 238 237 234 231 232 232 233 236 240 242 245 249 252 256 259 257 249 244 236 227 224
41 35 28 270 220 252 266 256 247 239 244 244 242 246 247 250 257 252 248 245 243 242 241 240 236 230 226 225 228 229 233 238 240 245 248 252 253 253 247 239 237 233 227
44 42 40 38 45 227 189 243 248 242 240 241 257 252 246 243 251 256 253 248 245 245 240 237 236 231 228 229 225 229 231 239 238 242 244 248 249 248 246 241 236 233 233
50 46 45 44 44 39 174 241 249 239 244 240 243 248 255 249 245 254 257 254 251 249 246 243 238 235 233 231 231 223 210 225 231 238 241 245 246 244 245 241 235 233 236
53 53 50 49 49 49 48 19 323 282 275 245 287 273 257 257 260 252 257 259 255 255 251 247 244 240 237 235 231 228 230 230 206 212 234 238 241 240 240 237 236 232 238
52 52 49 47 48 48 47 46 29 3 283 228 231 269 286 275 280 270 254 259 258 255 255 253 248 243 240 238 237 237 228 226 228 231 228 232 234 238 240 237 239 237 243
45 45 44 42 43 41 41 45 44 38 27 349 251 288 296 296 295 295 278 256 259 257 257 255 254 252 248 244 241 239 238 231 225 227 229 233 236 242 246 244 242 240 245